Weather History for Fayetteville, AR

Change the Weather History Date:

Wednesday, January 9, 2013

  Actual Average Record
Temperature  
Mean Temperature 52 °F 35 °F  
Max Temperature 57 °F 46 °F 71 °F (1957)
Min Temperature 46 °F 25 °F -15 °F (1970)
Degree Days  
Heating Degree Days 13 30  
Month to date heating degree days 273 270  
Since 1 July heating degree days 1791 1953  
Growing Degree Days 2 (Base 50)    
Moisture  
Dew Point 44 °F    
Average Humidity 79    
Maximum Humidity 100    
Minimum Humidity 57    
Precipitation  
Precipitation 0.02 in 0.09 in 0.60 in (1954)
Month to date precipitation 0.07 0.84  
Year to date precipitation 0.07 0.84  
Sea Level Pressure  
Sea Level Pressure 30.26 in    
Wind  
Wind Speed 8 mph (ENE)    
Max Wind Speed 22 mph    
Max Gust Speed 30 mph    
Visibility 8 miles    
Events Rain    
T = Trace of Precipitation, MM = Missing Value Source: NWS Daily Summary

Daily Weather History Graph

Daily Weather History Graph

Search for Another Location

Airport:

Trip Planner

Search our weather history database for the weather conditions in past years. The results will help you decide how hot, cold, wet, or windy it might be!

Date:

Astronomy

Jan. 09, 2013 Rise Set
Actual Time 7:27 AM CST 5:20 PM CST
Civil Twilight 6:59 AM CST 5:48 PM CST
Nautical Twilight 6:27 AM CST 6:20 PM CST
Astronomical Twilight 5:56 AM CST 6:51 PM CST
Moon 5:07 AM CST (1/9) 3:23 PM CST (1/9)
Length of Visible Light 10h 49m
Length of Day
9h 52m
Waning Crescent, 6% of the Moon is Illuminated
Jan 9
Waning Crescent
Jan 11
New
Jan 18
First Quarter
Jan 26
Full
Feb 3
Last Quarter

Hourly Weather History & Observations

Time (CST) Temp. Windchill Dew Point Humidity Pressure Visibility Wind Dir Wind Speed Gust Speed Precip Events Conditions
12:53 AM 46.0 °F - 45.0 °F 96% 30.22 in 2.5 mi Calm Calm - N/A   Overcast
1:17 AM 46.4 °F - 44.6 °F 93% 30.22 in 1.8 mi Calm Calm - N/A   Overcast
1:51 AM 46.4 °F - 44.6 °F 93% 30.23 in 2.5 mi Calm Calm - N/A   Overcast
1:53 AM 46.0 °F - 46.0 °F 100% 30.22 in 2.5 mi Calm Calm - N/A   Overcast
2:25 AM 46.4 °F - 46.4 °F 100% 30.23 in 4.0 mi Calm Calm - N/A   Overcast
2:53 AM 46.9 °F - 46.0 °F 97% 30.23 in 3.0 mi Calm Calm - N/A   Overcast
3:16 AM 46.4 °F - 46.4 °F 100% 30.22 in 4.0 mi Calm Calm - N/A   Overcast
3:41 AM 48.2 °F - 46.4 °F 93% 30.22 in 6.0 mi Calm Calm - 0.01 in   Overcast
3:53 AM 48.0 °F - 46.0 °F 93% 30.22 in 8.0 mi Calm Calm - 0.01 in   Overcast
4:53 AM 46.9 °F - 46.0 °F 97% 30.25 in 8.0 mi NE 3.5 mph - N/A   Overcast
5:41 AM 46.4 °F 45.2 °F 46.4 °F 100% 30.25 in 4.0 mi Variable 3.5 mph - N/A   Overcast
5:49 AM 46.4 °F 43.5 °F 46.4 °F 100% 30.25 in 2.0 mi NE 5.8 mph - N/A   Overcast
5:53 AM 46.9 °F - 46.0 °F 97% 30.25 in 2.5 mi NE 4.6 mph - N/A   Overcast
6:00 AM 46.4 °F 44.3 °F 46.4 °F 100% 30.25 in 4.0 mi NE 4.6 mph - N/A   Overcast
6:53 AM 48.0 °F - 46.0 °F 93% 30.29 in 10.0 mi ENE 9.2 mph - N/A   Overcast
7:44 AM 48.2 °F - 44.6 °F 87% 30.31 in 10.0 mi ENE 6.9 mph - N/A   Mostly Cloudy
7:53 AM 48.0 °F - 45.0 °F 89% 30.32 in 10.0 mi ENE 8.1 mph - N/A   Mostly Cloudy
8:32 AM 48.2 °F - 44.6 °F 87% 30.33 in 10.0 mi ENE 9.2 mph - N/A   Scattered Clouds
8:53 AM 48.0 °F - 45.0 °F 89% 30.33 in 10.0 mi ENE 5.8 mph - N/A   Clear
9:53 AM 50.0 °F - 45.0 °F 83% 30.34 in 10.0 mi NE 4.6 mph - N/A   Clear
10:53 AM 51.1 °F - 44.1 °F 77% 30.32 in 10.0 mi NE 4.6 mph - N/A   Clear
11:53 AM 53.6 °F - 44.6 °F 72% 30.30 in 10.0 mi ENE 8.1 mph - N/A   Clear
12:53 PM 55.9 °F - 44.1 °F 64% 30.28 in 10.0 mi East 11.5 mph - N/A   Clear
1:53 PM 57.0 °F - 42.1 °F 57% 30.26 in 10.0 mi ENE 12.7 mph - N/A   Clear
2:53 PM 55.9 °F - 41.0 °F 57% 30.26 in 10.0 mi NE 10.4 mph 17.3 mph N/A   Clear
3:53 PM 55.0 °F - 43.0 °F 64% 30.27 in 10.0 mi ENE 5.8 mph - N/A   Clear
4:53 PM 54.0 °F - 42.1 °F 64% 30.27 in 10.0 mi ENE 9.2 mph 19.6 mph N/A   Clear
5:53 PM 53.1 °F - 41.0 °F 64% 30.27 in 10.0 mi NE 9.2 mph - N/A   Overcast
6:53 PM 52.0 °F - 39.9 °F 63% 30.27 in 10.0 mi ENE 11.5 mph - N/A   Overcast
7:53 PM 53.1 °F - 39.0 °F 59% 30.27 in 10.0 mi ENE 11.5 mph - N/A   Overcast
8:53 PM 52.0 °F - 41.0 °F 66% 30.26 in 10.0 mi ENE 12.7 mph 25.3 mph 0.00 in Rain Light Rain
9:53 PM 50.0 °F - 41.0 °F 71% 30.23 in 10.0 mi ENE 16.1 mph 28.8 mph 0.01 in Rain Light Rain
10:53 PM 50.0 °F - 41.0 °F 71% 30.21 in 10.0 mi East 17.3 mph 27.6 mph 0.00 in   Mostly Cloudy
11:48 PM 50.0 °F - 42.8 °F 76% 30.21 in 10.0 mi East 11.5 mph 21.9 mph 0.00 in Rain Light Rain
11:53 PM 50.0 °F - 42.1 °F 74% 30.22 in 10.0 mi East 10.4 mph 19.6 mph 0.00 in Rain Light Rain